PARS 1

Last updated on Mon Sep 21 2026 00:02:46 GMT+0000 (Coordinated Universal Time)

1 59065U 24039Q 26263.61493535 .00008494 00000+0 16680-3 0 9996 2 59065 97.4930 247.7282 0010862 121.5691 238.6621 15.47516426143392
UTC large
Height (km)
Speed (km/s)
/
Latitude / Longitude
Inclination (degrees)
Orbital Period (minutes)
Azimuth
Elevation
Range (km)
Doppler Factor

Next 0 passes for location: London (51.5072 / 0.1276)

No passes found over London.
PARS 1